When you browse on this site, cookies collect data to enhance your experience and personalize the content and advertising you see.
Visit our Privacy Policy to learn more. By continuing to use the site, you agree to this use of cookies and data.
  • In Latvia
  • List of Countries
  • For 7 days
  • Water Temperature
  • Weather Map
  • Weather Widgets
  • user-avatar
    Login

    Hourly Weather Igls

    Today, 10 December, Tuesday

    Time Temperature Precipitation Wind Pressure Humidity
    00:00 +1°C° 1.2 mm 2 mps 680 mmHg 96%
    01:00 +2°C° 0 mm 1 mps 681 mmHg 97%
    02:00 +2°C° 1.1 mm 1 mps 681 mmHg 97%
    03:00 +1°C° 1.1 mm 2 mps 682 mmHg 97%
    04:00 +1°C° 1.1 mm 2 mps 682 mmHg 97%
    05:00 +1°C° 1.7 mm 2 mps 683 mmHg 97%
    06:00 0°C° 1.7 mm 3 mps 684 mmHg 97%
    07:00 0°C° 0 mm 3 mps 685 mmHg 97%
    08:00 -1°C° 0.5 mm 3 mps 686 mmHg 95%
    09:00 -1°C° 0.5 mm 3 mps 686 mmHg 94%
    10:00 -2°C° 0.5 mm 2 mps 687 mmHg 92%
    11:00 -1°C° 0.1 mm 2 mps 687 mmHg 89%
    12:00 -1°C° 0.1 mm 2 mps 688 mmHg 85%
    13:00 -1°C° 0.1 mm 2 mps 688 mmHg 82%
    14:00 0°C° 0 mm 1 mps 687 mmHg 84%
    15:00 -2°C° 0 mm 1 mps 687 mmHg 87%
    16:00 -3°C° 0 mm 1 mps 686 mmHg 89%
    17:00 -4°C° 0 mm 1 mps 687 mmHg 83%
    18:00 -6°C° 0 mm 2 mps 687 mmHg 77%
    19:00 -7°C° 0 mm 2 mps 687 mmHg 71%
    20:00 -6°C° 0 mm 2 mps 687 mmHg 64%
    21:00 -6°C° 0 mm 2 mps 687 mmHg 56%
    22:00 -5°C° 0 mm 2 mps 686 mmHg 49%
    23:00 -5°C° 0 mm 2 mps 686 mmHg 46%

    Tomorrow, 11 December, Wednesday

    Time Temperature Precipitation Wind Pressure Humidity
    00:00 -4°C° 0 mm 2 mps 686 mmHg 42%
    01:00 -3°C° 0 mm 2 mps 685 mmHg 39%
    02:00 -3°C° 0 mm 2 mps 685 mmHg 38%
    03:00 -2°C° 0 mm 2 mps 684 mmHg 37%
    04:00 -2°C° 0 mm 2 mps 683 mmHg 36%
    05:00 -2°C° 0 mm 2 mps 683 mmHg 36%
    06:00 +1°C° 0 mm 1 mps 683 mmHg 36%
    07:00 +1°C° 0 mm 1 mps 682 mmHg 36%
    08:00 +2°C° 0 mm 1 mps 682 mmHg 41%
    09:00 +4°C° 0 mm 1 mps 682 mmHg 46%
    10:00 +5°C° 0 mm 1 mps 682 mmHg 51%
    11:00 +6°C° 0 mm 1 mps 681 mmHg 57%
    12:00 +6°C° 0 mm 0 mps 681 mmHg 63%
    13:00 +7°C° 0 mm 0 mps 680 mmHg 69%
    14:00 +5°C° 0 mm 0 mps 679 mmHg 65%
    15:00 +3°C° 0 mm 0 mps 678 mmHg 61%
    16:00 +2°C° 0 mm 0 mps 677 mmHg 58%
    17:00 +1°C° 0 mm 0 mps 677 mmHg 56%
    18:00 +1°C° 0 mm 0 mps 677 mmHg 54%
    19:00 0°C° 0 mm 0 mps 677 mmHg 51%
    20:00 0°C° 0 mm 0 mps 677 mmHg 56%
    21:00 +1°C° 0 mm 1 mps 677 mmHg 60%
    22:00 0°C° 0 mm 1 mps 676 mmHg 64%
    23:00 0°C° 0.1 mm 1 mps 676 mmHg 70%

    Day after tomorrow, 12 December, Thursday

    Time Temperature Precipitation Wind Pressure Humidity
    00:00 0°C° 0.1 mm 1 mps 676 mmHg 76%
    01:00 0°C° 0.1 mm 1 mps 676 mmHg 81%
    02:00 0°C° 0.4 mm 1 mps 675 mmHg 86%
    03:00 0°C° 0.4 mm 1 mps 675 mmHg 91%
    04:00 0°C° 0.4 mm 1 mps 674 mmHg 95%
    05:00 0°C° 0.9 mm 1 mps 675 mmHg 95%
    06:00 0°C° 0.9 mm 1 mps 675 mmHg 95%
    07:00 0°C° 0.9 mm 1 mps 675 mmHg 95%
    08:00 0°C° 0.2 mm 1 mps 675 mmHg 92%
    09:00 +1°C° 0.2 mm 1 mps 676 mmHg 89%
    10:00 +1°C° 0.2 mm 1 mps 676 mmHg 86%
    11:00 +1°C° 0.1 mm 1 mps 676 mmHg 82%
    12:00 +1°C° 0.1 mm 1 mps 676 mmHg 79%
    13:00 +2°C° 0.1 mm 1 mps 675 mmHg 75%
    14:00 0°C° 0 mm 1 mps 675 mmHg 79%
    15:00 -1°C° 0 mm 1 mps 674 mmHg 84%
    16:00 -3°C° 0 mm 0 mps 674 mmHg 89%
    17:00 -3°C° 0 mm 1 mps 674 mmHg 87%
    18:00 -4°C° 0 mm 1 mps 673 mmHg 85%
    19:00 -7°C° 0 mm 2 mps 673 mmHg 83%
    20:00 -7°C° 0 mm 2 mps 673 mmHg 83%
    21:00 -8°C° 0 mm 3 mps 672 mmHg 82%
    22:00 -8°C° 0 mm 3 mps 671 mmHg 82%
    23:00 -8°C° 0 mm 4 mps 670 mmHg 83%

    13 December, Friday

    Time Temperature Precipitation Wind Pressure Humidity
    00:00 -8°C° 0 mm 4 mps 669 mmHg 83%
    01:00 -8°C° 0 mm 4 mps 668 mmHg 84%
    02:00 -7°C° 0 mm 5 mps 668 mmHg 84%
    03:00 -7°C° 0 mm 5 mps 667 mmHg 83%
    04:00 -7°C° 0 mm 5 mps 666 mmHg 82%
    05:00 -7°C° 0 mm 5 mps 665 mmHg 82%
    06:00 -7°C° 0 mm 5 mps 665 mmHg 82%
    07:00 -7°C° 0 mm 5 mps 664 mmHg 82%
    08:00 -5°C° 0.1 mm 4 mps 664 mmHg 83%
    09:00 -5°C° 0.1 mm 3 mps 664 mmHg 83%
    10:00 -4°C° 0.1 mm 2 mps 664 mmHg 84%
    11:00 -3°C° 0.2 mm 2 mps 664 mmHg 84%
    12:00 -2°C° 0.2 mm 2 mps 663 mmHg 85%
    13:00 0°C° 0.2 mm 1 mps 663 mmHg 85%
    14:00 0°C° 0.3 mm 1 mps 663 mmHg 87%
    15:00 0°C° 0.3 mm 1 mps 663 mmHg 89%
    16:00 0°C° 0.3 mm 1 mps 663 mmHg 91%
    17:00 -3°C° 0 mm 2 mps 664 mmHg 90%
    18:00 -3°C° 0 mm 2 mps 664 mmHg 89%
    19:00 -4°C° 0 mm 2 mps 665 mmHg 87%
    20:00 -4°C° 0.1 mm 2 mps 665 mmHg 89%
    21:00 -4°C° 0.1 mm 2 mps 666 mmHg 90%
    22:00 -3°C° 0.1 mm 2 mps 667 mmHg 92%
    23:00 -3°C° 0.2 mm 2 mps 668 mmHg 91%

    14 December, Saturday

    Time Temperature Precipitation Wind Pressure Humidity
    00:00 -3°C° 0.2 mm 2 mps 669 mmHg 91%
    01:00 -2°C° 0.2 mm 2 mps 670 mmHg 91%
    02:00 -3°C° 0 mm 2 mps 670 mmHg 88%
    03:00 -3°C° 0 mm 2 mps 670 mmHg 84%
    04:00 -4°C° 0 mm 2 mps 671 mmHg 81%
    05:00 -3°C° 0 mm 2 mps 671 mmHg 78%
    06:00 -3°C° 0 mm 2 mps 672 mmHg 75%
    07:00 -3°C° 0 mm 2 mps 672 mmHg 72%
    08:00 -1°C° 0 mm 2 mps 673 mmHg 72%
    09:00 +2°C° 0 mm 2 mps 674 mmHg 72%
    10:00 +3°C° 0 mm 2 mps 674 mmHg 72%
    11:00 +4°C° 0 mm 2 mps 674 mmHg 75%
    12:00 +5°C° 0 mm 2 mps 674 mmHg 78%
    13:00 +6°C° 0 mm 2 mps 674 mmHg 82%
    14:00 +5°C° 0 mm 2 mps 675 mmHg 80%
    15:00 +5°C° 0 mm 2 mps 675 mmHg 79%
    16:00 +4°C° 0 mm 2 mps 675 mmHg 78%
    17:00 +4°C° 0 mm 2 mps 676 mmHg 76%
    18:00 +3°C° 0 mm 2 mps 676 mmHg 74%
    19:00 +3°C° 0 mm 2 mps 677 mmHg 72%
    20:00 +2°C° 0 mm 2 mps 677 mmHg 71%
    21:00 +2°C° 0 mm 2 mps 678 mmHg 70%
    22:00 +2°C° 0 mm 2 mps 678 mmHg 69%
    23:00 +2°C° 0 mm 2 mps 678 mmHg 68%

    15 December, Sunday

    Time Temperature Precipitation Wind Pressure Humidity
    00:00 +2°C° 0 mm 2 mps 678 mmHg 68%
    01:00 +2°C° 0 mm 2 mps 678 mmHg 67%
    02:00 +2°C° 0 mm 2 mps 679 mmHg 67%
    03:00 +2°C° 0 mm 2 mps 679 mmHg 67%
    04:00 +2°C° 0 mm 2 mps 679 mmHg 67%
    05:00 +2°C° 0 mm 2 mps 679 mmHg 67%
    06:00 +1°C° 0 mm 2 mps 679 mmHg 68%
    07:00 0°C° 0 mm 3 mps 679 mmHg 69%
    08:00 +1°C° 0 mm 3 mps 679 mmHg 71%
    09:00 +2°C° 0 mm 3 mps 680 mmHg 73%
    10:00 +3°C° 0 mm 3 mps 680 mmHg 75%
    11:00 +4°C° 0 mm 3 mps 680 mmHg 79%
    12:00 +4°C° 0 mm 3 mps 680 mmHg 82%
    13:00 +5°C° 0 mm 3 mps 680 mmHg 86%
    14:00 +4°C° 0 mm 3 mps 680 mmHg 85%
    15:00 +4°C° 0 mm 2 mps 680 mmHg 85%
    16:00 +3°C° 0 mm 2 mps 680 mmHg 84%
    17:00 +2°C° 0 mm 2 mps 681 mmHg 83%
    18:00 +2°C° 0 mm 2 mps 681 mmHg 82%
    19:00 0°C° 0 mm 3 mps 681 mmHg 81%
    20:00 0°C° 0 mm 3 mps 681 mmHg 82%
    21:00 +1°C° 0 mm 2 mps 682 mmHg 82%
    22:00 -1°C° 0 mm 2 mps 682 mmHg 83%
    23:00 0°C° 0 mm 3 mps 682 mmHg 84%
    Show more